This demonstration page uses our WeatherBlox Daily Observations layout. Learn more.

Left ArrowRight Arrow

Hourly Observations for May 14, 2020

Temp ( °F °C ) Dew Point ( °F °C ) Humidity (%) Winds ( mph kmh ) Pressure ( in mb ) Visibility ( mi km ) Precip ( " mm )
12:54 am 00:54 Cloudy with Mist and Fog 55 12.8 53 11.7 93 93 Calm 29.84 1011 3 4.82802 0 0
1:15 am 01:15 Cloudy with Mist and Fog 55 12.8 53 11.7 93 93 E 6 9 29.82 1010 2 3.21868 0 0
1:38 am 01:38 Cloudy with Mist and Fog 55 12.8 53 11.7 93 93 SE 3 6 29.81 1009 3 4.82802 0 0
1:51 am 01:51 Cloudy with Mist and Fog 55 13 54 12 94 94 WSW 3 6 29.82 1010 2.5 4.02335 0 0
1:54 am 01:54 Cloudy with Mist and Fog 55 12.8 53 11.7 93 93 WNW 5 7 29.82 1010 2.5 4.02335 0 0
2:10 am 02:10 Cloudy with Mist and Fog 55 12.8 54 12.2 96 96 NW 5 7 29.83 1010 3 4.82802 0 0
2:34 am 02:34 Cloudy with Mist and Fog 56 13.3 54 12.2 93 93 NW 3 6 29.82 1010 3 4.82802 0 0
2:54 am 02:54 Cloudy with Mist and Fog 56 13.3 54 12.2 93 93 N 3 6 29.81 1009 2.5 4.02335 0 0
3:06 am 03:06 Cloudy with Mist and Fog 55 12.8 53 11.7 93 93 N 3 6 29.81 1009 2 3.21868 0 0
3:22 am 03:22 Cloudy with Mist and Fog 55 12.8 53 11.7 93 93 NNW 5 7 29.8 1009 1.75 2.816345 0 0
3:33 am 03:33 Cloudy with Mist and Fog 55 12.8 53 11.7 93 93 N 5 7 29.8 1009 2 3.21868 0 0
3:42 am 03:42 Cloudy with Mist and Fog 55 12.8 54 12.2 96 96 NNW 7 11 29.8 1009 1.25 2.011675 0 0
3:54 am 03:54 Cloudy with Mist and Fog 55 12.8 54 12.2 96 96 N 9 15 29.78 1009 1.75 2.816345 0 0
4:03 am 04:03 Cloudy with Mist and Fog 55 12.8 54 12.2 96 96 N 9 15 29.79 1009 2 3.21868 0 0
4:14 am 04:14 Cloudy with Mist and Fog 55 12.8 54 12.2 96 96 N 5 7 29.79 1009 2.5 4.02335 0 0
4:21 am 04:21 Cloudy with Mist and Fog 56 13.3 54 12.2 93 93 NNE 6 9 29.79 1009 3 4.82802 0 0
4:24 am 04:24 Cloudy with Mist and Fog 55 12.8 54 12.2 96 96 N 6 9 29.8 1009 2.5 4.02335 0 0
4:38 am 04:38 Cloudy with Mist and Fog 55 12.8 54 12.2 96 96 NE 3 6 29.8 1009 1.75 2.816345 0 0
4:43 am 04:43 Cloudy with Nearby Thunderstorms 55 12.8 54 12.2 96 96 E 5 7 29.8 1009 2 3.21868 0 0
4:54 am 04:54 Cloudy with Nearby Thunderstorms 56 13.3 54 12.2 93 93 SE 5 7 29.8 1009 3 4.82802 0 0
5:22 am 05:22 Cloudy with Light Thunderstorms 56 13.3 54 12.2 93 93 Calm 29.8 1009 3 4.82802 0.001 0.001
5:36 am 05:36 Cloudy with Light Rain 56 13.3 54 12.2 93 93 Calm 29.81 1009 3 4.82802 0.02 0.508
5:50 am 05:50 Cloudy with Light Rain 55 13 54 12 94 94 N 5 7 29.81 1009 2.5 4.02335 0.02 0.508
5:54 am 05:54 Cloudy with Nearby Thunderstorms 56 13.3 54 12.2 93 93 NNE 5 7 29.8 1009 2.5 4.02335 0.03 0.762
6:06 am 06:06 Cloudy with Nearby Thunderstorms 56 13.3 54 12.2 93 93 N 6 9 29.82 1010 2.5 4.02335 0.001 0.001
6:14 am 06:14 Cloudy with Light Rain 56 13.3 54 12.2 93 93 N 5 7 29.81 1009 2 3.21868 0.001 0.001
6:22 am 06:22 Cloudy with Mist and Fog 56 13.3 54 12.2 93 93 N 6 9 29.82 1010 1.5 2.41401 0.001 0.001
6:37 am 06:37 Mostly Cloudy with Mist and Fog 56 13.3 54 12.2 93 93 N 7 11 29.82 1010 0.75 1.207005 0.001 0.001
6:54 am 06:54 Mostly Cloudy with Mist and Fog 56 13.3 54 12.2 93 93 N 9 15 29.82 1010 0.75 1.207005 0.001 0.001
7:24 am 07:24 Cloudy with Light Rain 56 13.3 54 12.2 93 93 N 8 13 29.83 1010 1 1.60934 0.001 0.001
7:54 am 07:54 Cloudy with Light Rain 56 13.3 55 12.8 97 97 N 7 11 29.83 1010 1.25 2.011675 0.01 0.254
8:01 am 08:01 Cloudy with Mist and Fog 56 13.3 55 12.8 97 97 N 6 9 29.84 1010 1.25 2.011675 0.001 0.001
8:14 am 08:14 Cloudy with Mist and Fog 57 13.9 55 12.8 93 93 N 6 9 29.83 1010 1.5 2.41401 0.001 0.001
8:20 am 08:20 Cloudy with Mist and Fog 57 13.9 55 12.8 93 93 N 7 11 29.83 1010 2 3.21868 0.001 0.001
8:28 am 08:28 Cloudy with Mist and Fog 57 13.9 55 12.8 93 93 N 8 13 29.83 1010 2 3.21868 0.001 0.001
8:51 am 08:51 Cloudy with Mist and Fog 57 14 55 13 94 94 N 8 13 29.83 1010 3 4.82802 0.001 0.001
8:54 am 08:54 Cloudy with Mist and Fog 57 13.9 55 12.8 93 93 N 9 15 29.83 1010 4 6.43736 0.001 0.001
9:36 am 09:36 Cloudy with Mist and Fog 59 15 56 13.3 90 90 N 9 15 29.83 1010 6 9.65604 0 0
9:54 am 09:54 Cloudy with Mist and Fog 58 14.4 55 12.8 90 90 N 12 19 29.84 1010 6 9.65604 0 0
10:54 am 10:54 Cloudy 59 15 56 13.3 90 90 NE 9 15 29.83 1010 7 11.26538 0 0
11:54 am 11:54 Cloudy with Light Rain 59 15 55 12.8 87 87 NE 10 17 29.83 1010 5 8.0467 0.001 0.001
12:08 pm 12:08 Cloudy with Heavy Rain 59 15 56 13.3 90 90 NE 8 13 29.82 1010 1.75 2.816345 0.001 0.001
12:21 pm 12:21 Cloudy with Light Rain 59 15 56 13.3 90 90 NE 6 9 29.83 1010 3 4.82802 0.04 1.016
12:36 pm 12:36 Cloudy with Light Rain 59 15 56 13.3 90 90 ENE 5 7 29.83 1010 1.75 2.816345 0.04 1.016
12:42 pm 12:42 Cloudy with Light Rain 59 15 56 13.3 90 90 NE 7 11 29.82 1010 1.75 2.816345 0.04 1.016
12:51 pm 12:51 Cloudy with Light Rain 59 15 55 13 88 88 NE 8 13 29.82 1010 2 3.21868 0.05 1.27
12:54 pm 12:54 Cloudy with Light Rain 60 15.6 56 13.3 86 86 NNE 7 11 29.82 1010 2 3.21868 0.05 1.27
1:01 pm 13:01 Cloudy with Light Rain 59 15 57 13.9 93 93 NE 7 11 29.82 1010 2.5 4.02335 0.01 0.254
1:05 pm 13:05 Cloudy with Light Rain 59 15 57 13.9 93 93 ENE 6 9 29.82 1010 3 4.82802 0.01 0.254
1:25 pm 13:25 Cloudy with Mist and Fog 60 15.6 57 13.9 90 90 E 5 7 29.81 1009 5 8.0467 0.01 0.254
1:45 pm 13:45 Cloudy 60 15.6 57 13.9 90 90 E 6 9 29.81 1009 7 11.26538 0.01 0.254
1:54 pm 13:54 Cloudy 60 15.6 57 13.9 90 90 E 8 13 29.81 1010 7 11.26538 0.01 0.254
2:08 pm 14:08 Cloudy 60 15.6 57 13.9 90 90 NE 7 11 29.81 1009 7 11.26538 0 0
2:54 pm 14:54 Cloudy 62 16.7 58 14.4 86 86 NNE 5 7 29.8 1009 8 12.87472 0 0
3:54 pm 15:54 Cloudy 64 17.8 59 15 84 84 NNE 6 9 29.79 1009 9 14.48406 0 0
4:13 pm 16:13 Mostly Cloudy 65 18.3 59 15 81 81 NNE 7 11 29.77 1008 10 16.0934 0 0
4:54 pm 16:54 Cloudy 66 18.9 59 15 78 78 E 5 7 29.78 1009 10 16.0934 0 0
5:54 pm 17:54 Mostly Cloudy 68 20 59 15 73 73 NE 5 7 29.78 1009 10 16.0934 0 0
6:54 pm 18:54 Mostly Cloudy 70 21.1 61 16.1 73 73 NE 6 9 29.77 1008 10 16.0934 0 0
7:54 pm 19:54 Mostly Sunny 67 19.4 60 15.6 79 79 Calm 29.78 1008 10 16.0934 0 0
8:54 pm 20:54 Clear 59 15 57 13.9 93 93 N 5 7 29.78 1009 8 12.87472 0 0
9:54 pm 21:54 Clear with Mist and Fog 58 14.4 56 13.3 93 93 SE 3 6 29.83 1010 4 6.43736 0 0
10:01 pm 22:01 Clear with Mist and Fog 58 14.4 57 13.9 97 97 E 3 6 29.83 1010 2.5 4.02335 0 0
10:09 pm 22:09 Clear with Mist and Fog 56 13.3 55 12.8 97 97 Calm 29.84 1010 3 4.82802 0 0
10:11 pm 22:11 Clear with Mist and Fog 57 13.9 55 12.8 93 93 ENE 3 6 29.82 1010 1.5 2.41401 0 0
10:19 pm 22:19 Clear with Mist and Fog 56 13.3 54 12.2 93 93 Calm 29.84 1010 1 1.60934 0 0
10:23 pm 22:23 Clear with Mist and Fog 55 12.8 53 11.7 93 93 Calm 29.84 1010 2.5 4.02335 0 0
10:29 pm 22:29 Mostly Cloudy with Mist and Fog 55 12.8 54 12.2 96 96 Calm 29.84 1010 0.75 1.207005 0 0
10:42 pm 22:42 Mostly Clear with Mist and Fog 58 14.4 55 12.8 90 90 Calm 29.84 1011 1.25 2.011675 0 0
10:45 pm 22:45 Mostly Clear with Mist and Fog 58 14.4 55 12.8 90 90 Calm 29.84 1011 4 6.43736 0 0
10:54 pm 22:54 Mostly Clear with Mist and Fog 58 14.4 56 13.3 93 93 Calm 29.85 1011 6 9.65604 0 0
11:28 pm 23:28 Clear with Mist and Fog 56 13.3 55 12.8 97 97 Calm 29.87 1011 1.75 2.816345 0 0
11:35 pm 23:35 Mostly Cloudy with Mist and Fog 53 11.7 51 10.6 93 93 Calm 29.87 1012 1 1.60934 0 0
11:41 pm 23:41 Mostly Clear with Mist and Fog 52 11.1 50 10 93 93 NNW 6 9 29.89 1012 1.5 2.41401 0 0
11:45 pm 23:45 Partly Cloudy with Mist and Fog 54 12.2 51 10.6 90 90 NNW 3 6 29.88 1012 4 6.43736 0 0
11:54 pm 23:54 Partly Cloudy with Mist and Fog 56 13.3 55 12.8 97 97 NNW 5 7 29.87 1012 6 9.65604 0 0

Powered by AerisWeather